Temp
-8 -8 -8 -8 -8 -7 -7 -7 -7 -7 -7 -7 -7 -7 -7 -7 -7 -7 -7 -7 -7 -7 -7 -7 -7 -7 -7 -7 -7 -7 -7 -6 -6 -6 -6 -7 -7 -7 -7 -7 -7 -7 -7
-8 -9 -8 -8 -8 -8 -8 -7 -7 -7 -7 -7 -7 -7 -7 -7 -7 -7 -7 -7 -7 -7 -7 -7 -7 -7 -7 -7 -7 -7 -7 -7 -7 -7 -7 -7 -7 -7 -7 -7 -7 -7 -7
-8 -9 -8 -8 -8 -8 -8 -8 -7 -7 -7 -7 -7 -7 -7 -7 -7 -6 -6 -6 -6 -7 -7 -7 -7 -7 -7 -7 -7 -7 -7 -7 -7 -7 -7 -7 -7 -7 -7 -7 -7 -7 -7
-8 -8 -9 -9 -8 -8 -8 -8 -8 -7 -7 -7 -7 -7 -7 -7 -7 -7 -7 -6 -7 -7 -7 -7 -7 -7 -7 -7 -7 -7 -7 -7 -7 -7 -7 -7 -7 -7 -7 -7 -7 -7 -8
-8 -8 -9 -9 -9 -9 -8 -8 -8 -8 -7 -7 -7 -7 -7 -7 -7 -7 -7 -7 -7 -7 -7 -7 -7 -7 -7 -7 -7 -7 -7 -7 -7 -8 -8 -8 -8 -8 -8 -8 -8 -8 -8
-8 -8 -8 -9 -9 -9 -9 -8 -8 -8 -8 -7 -7 -7 -7 -7 -7 -7 -7 -7 -7 -7 -7 -7 -7 -7 -7 -7 -7 -7 -8 -8 -8 -8 -8 -8 -8 -8 -8 -8 -8 -8 -8
-8 -8 -8 -8 -9 -9 -9 -9 -8 -8 -8 -8 -7 -7 -7 -8 -7 -7 -7 -7 -7 -7 -7 -7 -7 -7 -7 -7 -8 -8 -8 -8 -8 -8 -8 -8 -8 -8 -8 -8 -8 -8 -8
-8 -8 -8 -8 -9 -9 -9 -9 -9 -8 -8 -8 -8 -7 -8 -8 -8 -7 -7 -7 -7 -7 -7 -7 -7 -8 -8 -8 -8 -8 -8 -8 -8 -8 -8 -8 -8 -8 -8 -8 -8 -8 -8
-8 -8 -8 -8 -8 -9 -9 -9 -9 -9 -9 -8 -8 -8 -8 -8 -8 -8 -7 -7 -7 -7 -8 -8 -8 -8 -8 -8 -8 -8 -8 -9 -8 -8 -8 -8 -8 -8 -8 -8 -8 -8 -8
-9 -8 -8 -9 -9 -9 -10 -9 -9 -9 -9 -9 -8 -8 -8 -8 -8 -8 -8 -8 -8 -8 -8 -8 -8 -8 -8 -8 -8 -8 -8 -8 -8 -8 -8 -8 -8 -8 -8 -8 -8 -8 -8
-9 -9 -8 -8 -10 -9 -9 -10 -10 -9 -9 -9 -8 -8 -8 -8 -8 -8 -8 -8 -8 -8 -8 -8 -8 -8 -8 -8 -8 -8 -8 -8 -8 -8 -8 -8 -8 -8 -8 -8 -8 -9 -9
-10 -9 -9 -9 -10 -10 -10 -10 -10 -10 -10 -9 -9 -9 -8 -8 -8 -8 -8 -8 -8 -8 -8 -8 -8 -8 -8 -8 -8 -8 -8 -9 -8 -9 -9 -8 -8 -8 -8 -8 -8 -9 -9
-10 -10 -10 -10 -11 -11 -11 -11 -10 -10 -10 -10 -9 -9 -9 -8 -8 -9 -8 -8 -8 -8 -8 -8 -8 -8 -8 -8 -8 -9 -9 -9 -9 -9 -9 -9 -9 -9 -9 -9 -9 -9 -9
-11 -12 -15 -14 -14 -13 -11 -11 -11 -11 -10 -10 -10 -9 -9 -9 -9 -9 -9 -8 -8 -9 -8 -8 -8 -8 -8 -8 -9 -9 -9 -9 -9 -9 -9 -9 -9 -9 -9 -9 -9 -9 -9
-14 -17 -17 -17 -16 -14 -13 -11 -11 -10 -11 -10 -11 -10 -9 -9 -9 -9 -9 -9 -9 -9 -9 -9 -9 -9 -8 -9 -9 -9 -9 -9 -9 -9 -9 -9 -9 -9 -10 -10 -10 -10 -10
-17 -18 -18 -18 -17 -16 -13 -11 -11 -12 -11 -11 -11 -11 -9 -10 -9 -9 -9 -9 -9 -9 -9 -9 -9 -9 -9 -9 -9 -9 -9 -9 -9 -9 -9 -9 -9 -10 -10 -10 -10 -10 -10
-18 -18 -18 -18 -17 -17 -14 -13 -11 -12 -10 -11 -11 -11 -9 -10 -9 -9 -9 -9 -9 -9 -9 -9 -9 -9 -9 -9 -9 -9 -10 -10 -10 -9 -9 -10 -10 -10 -10 -10 -10 -10 -10
-18 -18 -19 -18 -18 -17 -16 -13 -13 -11 -12 -11 -11 -11 -10 -10 -10 -10 -10 -10 -9 -9 -9 -9 -9 -9 -9 -9 -9 -10 -10 -10 -10 -10 -10 -10 -10 -10 -10 -10 -10 -10 -10
-18 -19 -19 -19 -19 -17 -16 -13 -11 -11 -11 -11 -11 -11 -10 -10 -10 -10 -10 -10 -10 -10 -9 -10 -10 -10 -10 -10 -10 -10 -10 -10 -10 -10 -10 -10 -10 -10 -10 -10 -10 -10 -10
-19 -19 -19 -19 -19 -18 -17 -14 -13 -12 -11 -11 -12 -12 -10 -10 -10 -10 -10 -10 -10 -10 -10 -10 -10 -10 -10 -10 -10 -10 -10 -10 -10 -10 -11 -11 -11 -11 -11 -11 -11 -11 -11
-19 -19 -19 -19 -19 -18 -16 -16 -14 -12 -12 -11 -11 -11 -12 -10 -11 -10 -11 -11 -10 -10 -10 -10 -10 -10 -10 -10 -10 -10 -10 -10 -10 -10 -11 -11 -11 -11 -11 -11 -11 -11 -11
-19 -19 -20 -19 -19 -17 -16 -15 -14 -12 -11 -11 -11 -12 -11 -12 -11 -11 -11 -11 -11 -11 -11 -10 -10 -10 -10 -11 -11 -11 -11 -11 -11 -11 -11 -11 -11 -11 -11 -11 -12 -12 -12
-18 -19 -19 -19 -19 -17 -17 -17 -15 -14 -12 -12 -12 -12 -12 -11 -11 -11 -11 -11 -11 -11 -11 -11 -11 -11 -11 -11 -11 -11 -11 -11 -11 -11 -11 -11 -11 -11 -11 -12 -12 -12 -12
-18 -18 -18 -17 -17 -17 -17 -16 -17 -14 -13 -12 -11 -12 -12 -11 -12 -11 -11 -11 -11 -11 -11 -11 -11 -11 -11 -11 -11 -11 -11 -11 -11 -11 -11 -11 -12 -12 -12 -12 -12 -12 -12
-18 -18 -17 -17 -17 -16 -16 -17 -16 -14 -14 -12 -11 -12 -11 -11 -11 -12 -12 -11 -11 -12 -12 -11 -11 -11 -11 -11 -11 -12 -12 -12 -12 -12 -12 -12 -12 -12 -12 -12 -12 -13 -13
-18 -17 -17 -17 -17 -16 -16 -16 -17 -15 -14 -12 -12 -11 -11 -11 -11 -11 -13 -12 -12 -12 -12 -12 -12 -12 -12 -12 -12 -12 -12 -12 -12 -12 -12 -12 -12 -13 -13 -13 -13 -13 -13
Height
5832 5833 5835 5836 5838 5840 5841 5843 5845 5845 5847 5850 5852 5853 5854 5855 5857 5858 5859 5860 5862 5863 5865 5867 5868 5870 5871 5873 5874 5875 5876 5877 5877 5878 5879 5879 5879 5880 5881 5881 5882 5881 5881
5826 5828 5831 5833 5835 5836 5838 5840 5842 5843 5845 5847 5850 5851 5853 5854 5855 5857 5858 5860 5861 5863 5865 5866 5868 5869 5871 5873 5874 5875 5876 5877 5878 5878 5879 5879 5879 5880 5881 5881 5882 5881 5881
5821 5826 5826 5829 5831 5833 5835 5837 5839 5841 5843 5844 5847 5849 5851 5853 5854 5855 5857 5859 5861 5862 5864 5866 5867 5869 5871 5872 5873 5875 5876 5877 5878 5879 5879 5879 5880 5881 5881 5882 5882 5882 5882
5816 5819 5820 5823 5825 5828 5830 5833 5835 5838 5840 5842 5844 5846 5848 5850 5852 5854 5856 5858 5860 5862 5864 5866 5867 5869 5870 5872 5873 5875 5876 5877 5878 5879 5880 5880 5881 5881 5882 5882 5882 5882 5882
5808 5811 5816 5817 5820 5822 5825 5828 5831 5833 5836 5839 5840 5843 5845 5848 5850 5852 5854 5856 5859 5862 5863 5865 5867 5868 5870 5871 5873 5874 5876 5877 5878 5879 5880 5880 5881 5881 5881 5881 5881 5881 5881
5799 5803 5808 5810 5813 5817 5820 5823 5826 5829 5831 5834 5837 5839 5842 5844 5847 5849 5852 5854 5857 5860 5862 5864 5866 5868 5869 5871 5872 5874 5875 5876 5877 5879 5879 5879 5880 5880 5881 5881 5881 5881 5881
5791 5793 5798 5803 5806 5810 5813 5816 5820 5823 5826 5829 5833 5836 5838 5841 5844 5847 5849 5852 5855 5858 5860 5862 5865 5867 5868 5870 5871 5873 5874 5875 5876 5877 5877 5878 5879 5879 5880 5880 5880 5880 5879
5783 5784 5788 5793 5797 5801 5805 5809 5812 5816 5820 5824 5827 5831 5834 5837 5840 5843 5846 5849 5852 5855 5858 5860 5862 5865 5866 5867 5869 5871 5872 5873 5874 5874 5876 5877 5878 5878 5878 5878 5878 5878 5877
5774 5775 5778 5782 5786 5792 5796 5801 5805 5809 5813 5817 5820 5824 5828 5832 5834 5838 5842 5845 5848 5851 5855 5857 5860 5862 5864 5865 5867 5869 5870 5872 5873 5874 5875 5876 5877 5877 5877 5877 5877 5877 5876
5764 5765 5767 5770 5774 5780 5786 5790 5796 5801 5806 5811 5814 5817 5822 5825 5829 5833 5837 5841 5844 5848 5851 5854 5857 5860 5862 5863 5865 5867 5869 5870 5872 5873 5874 5875 5875 5875 5876 5876 5875 5875 5875
5751 5752 5755 5757 5761 5766 5774 5781 5785 5792 5795 5801 5807 5811 5814 5820 5824 5828 5832 5836 5840 5843 5847 5851 5854 5857 5859 5861 5863 5866 5866 5868 5870 5871 5872 5873 5874 5874 5874 5874 5874 5874 5874
5736 5735 5738 5742 5745 5752 5761 5768 5774 5780 5786 5792 5799 5803 5807 5813 5818 5823 5827 5832 5836 5840 5844 5847 5851 5854 5857 5859 5861 5864 5865 5867 5868 5869 5871 5872 5872 5872 5872 5872 5873 5872 5872
5720 5718 5718 5723 5729 5737 5747 5757 5763 5770 5777 5783 5790 5795 5799 5805 5811 5817 5821 5827 5832 5835 5840 5844 5848 5851 5853 5856 5859 5861 5863 5865 5865 5866 5868 5869 5870 5870 5871 5871 5871 5870 5870
5699 5697 5698 5702 5710 5721 5732 5744 5750 5761 5768 5774 5781 5786 5791 5798 5804 5810 5815 5820 5826 5829 5835 5839 5843 5847 5850 5853 5856 5857 5860 5862 5863 5864 5865 5866 5867 5868 5868 5868 5868 5867 5867
5675 5677 5676 5684 5693 5703 5719 5732 5731 5746 5754 5763 5769 5776 5783 5791 5796 5801 5808 5813 5819 5824 5829 5833 5838 5842 5846 5849 5852 5854 5857 5858 5860 5861 5862 5863 5864 5865 5865 5865 5865 5864 5863
5660 5660 5662 5668 5677 5685 5702 5714 5712 5729 5731 5743 5755 5765 5775 5782 5786 5794 5800 5806 5813 5817 5823 5827 5832 5836 5840 5844 5847 5849 5852 5854 5856 5857 5858 5859 5860 5860 5860 5861 5861 5861 5860
5650 5650 5651 5655 5662 5673 5685 5693 5694 5710 5713 5723 5739 5753 5767 5774 5779 5786 5792 5800 5806 5811 5816 5821 5826 5830 5834 5839 5841 5845 5847 5850 5851 5853 5854 5855 5855 5855 5856 5856 5856 5856 5855
5640 5640 5640 5644 5648 5658 5669 5685 5700 5693 5711 5717 5730 5741 5754 5763 5771 5778 5785 5791 5799 5804 5809 5815 5820 5824 5828 5832 5836 5839 5842 5844 5846 5848 5849 5850 5850 5851 5851 5851 5851 5850 5850
5630 5629 5631 5635 5639 5643 5656 5670 5680 5691 5700 5703 5719 5730 5743 5753 5761 5769 5778 5783 5791 5796 5802 5807 5812 5817 5822 5826 5830 5833 5836 5838 5841 5843 5844 5844 5845 5845 5846 5846 5846 5845 5844
5619 5618 5620 5625 5629 5633 5641 5647 5666 5676 5685 5695 5709 5719 5732 5740 5749 5759 5770 5775 5784 5789 5795 5800 5805 5810 5814 5818 5822 5826 5829 5832 5834 5836 5837 5838 5838 5839 5839 5839 5839 5838 5837
5610 5609 5611 5615 5619 5625 5633 5640 5657 5664 5679 5687 5700 5712 5723 5731 5739 5748 5759 5768 5776 5783 5788 5793 5797 5802 5806 5811 5815 5818 5821 5824 5826 5828 5830 5831 5832 5832 5832 5832 5831 5830 5829
5605 5603 5605 5607 5612 5621 5627 5639 5647 5654 5662 5680 5691 5703 5711 5720 5732 5739 5750 5759 5767 5775 5781 5786 5790 5795 5799 5803 5806 5809 5812 5816 5818 5819 5821 5822 5823 5824 5824 5824 5823 5822 5820
5601 5597 5597 5605 5612 5618 5624 5632 5640 5645 5657 5669 5681 5693 5702 5716 5724 5733 5742 5750 5758 5766 5772 5778 5782 5787 5791 5794 5797 5802 5804 5808 5809 5811 5812 5813 5814 5815 5815 5815 5814 5813 5812
5601 5599 5601 5603 5610 5616 5625 5635 5640 5643 5652 5663 5675 5688 5697 5705 5714 5724 5734 5743 5750 5758 5764 5769 5773 5778 5781 5786 5790 5794 5796 5799 5800 5802 5804 5805 5806 5805 5805 5805 5804 5803 5802
5601 5599 5601 5601 5605 5615 5623 5630 5634 5640 5650 5656 5669 5680 5693 5697 5705 5717 5726 5733 5741 5749 5755 5760 5764 5769 5774 5778 5781 5784 5787 5789 5792 5793 5794 5795 5795 5795 5795 5795 5793 5793 5789
5600 5601 5600 5603 5605 5610 5622 5627 5632 5638 5645 5653 5664 5672 5683 5692 5700 5705 5714 5722 5730 5738 5745 5751 5755 5760 5765 5768 5771 5774 5778 5780 5782 5783 5784 5783 5784 5784 5783 5784 5781 5780 5777
Wind_Speed
21 22 22 21 23 25 24 23 23 23 22 19 15 13 12 11 12 12 12 12 13 13 13 13 13 14 12 10 8 6 4 5 5 4 4 5 6 5 5 4 4 4 5
26 25 24 24 25 27 26 25 25 26 25 24 20 17 15 14 13 14 14 14 13 13 13 14 15 14 12 10 8 6 5 5 5 4 3 4 5 5 5 5 5 6 6
28 27 28 28 28 29 29 28 27 28 28 27 25 21 18 17 16 15 15 15 15 14 14 14 14 13 11 9 7 6 5 5 3 1 1 3 4 4 4 4 5 5 5
33 31 32 31 32 32 32 31 30 30 30 29 29 25 21 20 19 17 17 16 16 15 14 14 14 12 11 10 8 7 6 5 3 1 2 3 3 3 2 3 3 3 4
39 38 36 36 36 35 35 34 33 33 33 33 32 30 25 23 22 21 19 18 17 16 15 15 15 14 13 11 10 8 7 5 2 2 3 3 2 2 2 4 4 4 4
43 43 41 41 40 39 38 37 36 36 35 35 34 33 29 26 25 24 22 20 19 18 17 16 15 15 14 12 11 9 6 3 3 2 2 3 4 3 4 5 6 6 7
43 46 46 46 45 44 42 41 39 40 39 37 37 36 34 29 28 27 25 23 21 20 19 18 16 15 14 12 10 7 6 5 3 2 2 4 4 4 5 6 6 7 7
43 46 48 50 50 49 47 45 43 43 43 40 39 38 37 33 31 30 28 26 23 21 20 19 18 16 13 11 10 9 8 6 4 4 2 2 3 3 4 4 5 6 6
39 45 50 54 56 54 52 50 48 46 45 44 42 41 41 37 34 33 32 29 26 24 21 19 17 14 12 12 10 9 8 6 5 3 3 2 1 2 3 4 5 6 7
41 41 47 55 61 61 58 56 53 50 47 47 44 43 43 42 38 36 35 32 29 26 23 21 18 16 14 13 11 9 8 8 7 4 3 2 2 3 4 4 6 8 9
44 45 45 54 64 67 63 60 58 56 51 50 48 46 46 45 41 39 38 36 32 29 26 24 21 19 17 14 12 10 12 9 8 6 4 1 1 2 3 5 7 8 9
49 51 50 50 65 71 70 64 63 60 57 54 51 50 49 47 45 41 41 38 34 32 29 26 24 21 19 17 14 13 13 11 10 8 6 4 2 2 4 5 7 9 10
52 53 58 56 64 75 73 66 65 64 61 58 54 53 52 50 48 43 43 41 37 34 31 28 26 25 22 19 16 15 13 13 12 10 8 7 4 4 4 6 8 10 12
53 55 57 59 62 76 75 69 68 65 62 59 59 56 55 52 50 47 45 44 41 38 35 31 29 27 25 22 19 17 13 13 13 12 10 8 6 5 6 8 10 12 13
52 47 56 59 60 73 78 65 76 61 60 64 63 60 57 53 53 51 48 47 44 41 38 35 32 31 29 26 22 20 15 15 14 12 10 9 8 7 9 12 13 14 16
44 38 49 58 61 69 81 61 72 74 73 75 68 65 59 56 56 54 51 49 47 44 41 38 36 34 32 30 27 24 21 19 17 14 14 13 12 12 12 14 17 20 21
36 33 42 48 61 65 85 85 56 91 59 73 70 67 62 59 58 56 53 51 49 46 44 42 39 36 35 33 31 28 26 24 22 20 18 17 17 17 17 21 22 24 26
35 35 42 44 58 66 82 72 73 70 68 69 71 68 66 61 60 58 55 53 50 49 47 44 41 39 37 36 35 33 31 29 27 25 24 23 23 23 24 27 27 28 30
36 38 42 43 44 66 78 83 72 58 80 59 76 71 68 64 62 59 56 55 52 52 49 46 44 42 40 38 38 37 35 33 32 31 29 29 28 28 30 32 35 35 37
34 38 40 43 43 60 77 108 60 58 76 48 65 69 74 70 64 61 58 57 54 53 51 48 46 44 43 41 40 39 39 37 36 36 35 35 34 35 35 37 38 41 42
26 33 35 41 44 54 82 101 57 70 86 74 73 74 69 70 66 63 60 58 55 53 52 51 49 48 45 43 42 41 40 40 40 40 40 40 40 40 41 41 43 45 46
26 24 28 32 34 52 81 89 47 73 67 63 68 78 52 74 67 64 61 58 58 55 53 53 52 49 47 45 45 44 44 43 42 43 43 44 45 45 47 47 48 51 52
17 16 15 12 14 39 55 57 61 52 64 66 65 74 71 60 66 63 62 60 58 58 56 54 52 51 49 49 48 47 45 44 45 45 46 46 48 49 50 51 52 55 56
13 12 11 21 25 38 42 58 66 41 32 71 77 64 71 69 72 65 63 58 58 58 58 56 55 53 54 51 49 47 48 47 49 49 48 48 49 51 53 54 55 56 58
15 10 12 26 24 35 40 50 55 38 24 62 75 55 71 59 66 67 62 59 60 58 57 58 57 55 54 52 51 50 50 49 50 50 50 50 52 53 53 55 57 58 59
20 16 7 17 15 21 45 46 52 50 25 35 55 55 64 59 54 64 66 59 57 58 57 57 55 54 53 53 51 52 50 50 51 50 52 52 53 52 54 57 62 61 63
Wind_Direction
241 244 238 232 229 227 226 223 217 209 208 209 209 208 202 194 197 197 193 189 186 178 174 173 171 169 167 165 163 161 150 146 138 114 95 75 60 50 44 41 27 25 19
245 241 237 235 230 229 229 227 222 214 209 209 209 208 208 198 197 196 196 194 190 185 180 177 174 175 172 172 175 179 180 170 164 138 102 59 41 29 21 12 13 16 20
248 241 238 236 233 231 230 229 226 221 214 211 210 208 208 205 198 196 195 195 191 186 180 177 179 181 183 188 193 196 195 187 186 165 27 20 6 354 2 9 17 17 13
253 243 241 236 233 233 231 231 227 225 220 214 212 210 208 206 201 194 195 192 193 188 184 184 188 191 195 199 203 207 201 200 202 238 326 329 326 331 335 337 355 0 360
250 247 240 238 235 233 232 232 231 227 224 220 214 213 208 208 204 197 196 193 193 192 190 192 195 197 198 200 199 199 198 197 217 298 310 301 292 287 305 308 317 322 329
251 248 243 240 236 234 233 230 231 232 227 223 219 213 211 208 207 201 197 195 194 193 193 193 196 198 196 198 192 191 198 208 236 261 280 284 278 281 300 304 299 307 317
251 248 245 239 237 235 233 231 229 232 230 225 222 215 213 211 209 205 200 196 196 196 194 193 194 196 195 195 197 201 206 218 225 245 256 268 281 280 289 302 307 310 311
257 252 247 242 237 234 232 231 228 229 230 226 223 218 214 212 211 208 204 198 198 200 200 198 194 194 195 200 209 212 211 206 200 216 216 250 285 290 299 317 323 319 315
258 256 252 242 239 235 232 230 229 227 230 227 223 220 214 213 212 210 206 202 200 200 203 201 198 197 204 212 213 210 197 182 194 175 161 205 256 316 322 318 320 320 316
260 260 255 245 237 234 231 229 227 227 229 228 224 219 216 214 213 210 209 205 202 202 204 204 203 205 208 212 207 205 190 191 169 171 184 212 257 275 284 307 324 321 321
269 264 258 249 236 233 230 230 227 225 224 227 224 219 216 215 214 212 211 206 205 204 205 208 206 205 207 208 200 194 199 191 184 175 172 190 267 330 332 337 322 318 318
276 273 264 254 235 229 228 226 227 224 223 225 224 220 216 214 215 214 213 209 206 208 207 209 208 207 206 206 201 198 209 197 194 196 206 224 271 325 342 345 335 337 336
278 269 263 255 237 224 225 223 227 225 222 222 223 221 216 213 214 213 214 212 208 210 209 212 212 211 208 206 205 205 216 220 219 222 227 242 261 313 329 335 340 339 337
276 261 255 249 233 220 217 219 221 225 223 221 220 221 218 213 213 214 214 213 209 210 212 213 215 215 214 209 212 210 215 225 232 239 233 240 259 284 309 325 325 325 324
272 259 246 237 227 218 212 214 221 216 221 219 220 219 217 213 212 214 214 214 212 211 212 214 215 217 217 213 215 217 218 226 231 230 230 236 252 278 297 308 310 315 316
275 255 245 236 225 218 205 207 216 212 220 218 218 214 216 212 213 213 214 214 213 213 214 215 216 219 220 218 217 219 222 225 232 235 233 240 250 268 281 295 304 307 308
267 252 244 239 225 217 207 203 221 211 204 207 211 211 215 212 214 214 215 215 215 215 216 217 218 220 224 224 223 223 226 229 235 242 248 251 259 268 278 290 292 297 301
255 251 241 240 232 221 209 205 214 202 214 224 211 208 211 213 214 214 215 216 215 217 218 219 220 222 225 228 229 229 231 233 238 244 250 257 263 271 279 284 290 292 296
259 248 240 238 237 222 210 201 203 204 208 205 205 205 208 213 215 216 216 217 216 218 219 220 222 223 227 229 233 234 236 238 241 247 251 256 262 269 277 282 284 288 293
266 255 245 235 231 228 211 205 201 213 202 201 204 206 213 211 212 215 217 219 218 219 220 221 223 226 228 230 234 237 239 242 244 248 252 256 261 265 271 277 278 284 290
278 257 246 234 236 229 212 214 215 204 211 205 215 215 213 210 210 213 216 219 221 222 222 224 225 227 230 232 236 238 241 245 247 249 254 258 262 265 268 272 276 279 286
293 268 247 239 241 221 212 213 205 192 191 194 205 206 212 209 212 213 215 218 222 223 225 227 228 230 232 234 237 239 241 244 248 250 253 256 261 265 268 270 275 279 283
269 198 193 216 217 224 222 226 219 201 197 204 204 204 214 219 218 217 218 219 222 225 226 228 230 232 235 236 238 242 244 247 249 252 254 257 261 265 269 271 274 278 283
225 247 233 172 210 227 225 222 230 196 199 210 218 212 214 224 217 218 219 221 224 226 228 230 231 233 236 238 241 245 247 248 251 253 257 260 263 265 268 273 276 278 280
237 235 156 163 194 222 222 231 232 197 199 214 206 213 207 219 215 216 220 221 225 227 230 232 234 236 239 241 242 245 248 251 255 257 259 262 264 267 271 274 278 278 279
224 170 199 157 134 203 220 230 240 234 207 192 210 212 219 217 223 227 217 218 223 228 230 234 236 238 241 243 246 248 250 253 256 259 260 261 264 269 273 275 275 276 277